Home   Weather   Kaufbeuren   Past weeks

Flag for Germany Past Weather in Kaufbeuren, Bavaria, Germany — Yesterday and Last 2 Weeks

Now
57 °F

Refreshingly cool.


Feels Like: 54 °F
Forecast: 35 / 48 °F
Wind: 14 mph from East

Location: Altenstadt Airport

Current Time: Apr 30, 2017 at 6:43:08 pm

Latest Report: Apr 30, 2017 at 5:20 pm


Visibility: N/A

Pressure: 29.80 "Hg (27.44 "Hg at 693m altitude)

Humidity: 41%

Dew Point: 34 °F

Location of KaufbeurenLocation

Past Weather in Kaufbeuren — Graph

°F

Kaufbeuren Temperature Yesterday

Maximum temperature yesterday: 50 °F (at 6:20 pm)
Minimum temperature yesterday: 30 °F (at 6:20 am)
Average temperature yesterday: 39 °F

High & Low Weather Summary for the Past Weeks

 TemperatureHumidityPressure
High61 °F (Apr 24, 4:20 pm)100% (Apr 16, 9:20 pm)30.48 "Hg (Apr 16, 9:20 pm)
Low21 °F (Apr 21, 6:20 am)27% (Apr 24, 4:20 pm)29.71 "Hg (Apr 26, 12:20 am)
Average37 °F81%30.07 "Hg
* Reported Apr 15 5:20 pm — Apr 30 5:20 pm, Kaufbeuren, Weather by CustomWeather, © 2017

Note: Actual official high and low records may vary slightly from our data, if they occured in-between our weather recording intervals... More about our weather records

Advertising

Kaufbeuren Weather History for the Previous 24 Hours

Scroll right to see more
 ConditionsComfort  
Time TempWeatherWind HumidityBarometerVisibility
5:20 pm
Sun, Apr 30
57 °FRefreshingly cool.14 mph41%29.80 "HgN/A
4:20 pm57 °FRefreshingly cool.14 mph36%29.80 "HgN/A
3:20 pm57 °FRefreshingly cool.12 mph33%29.83 "HgN/A
2:20 pm55 °FRefreshingly cool.14 mph36%29.83 "HgN/A
1:20 pm54 °FCool.12 mph41%29.86 "HgN/A
12:20 pm54 °FCool.10 mph47%29.89 "HgN/A
11:20 am50 °FCool.8 mph50%29.89 "HgN/A
10:20 am46 °FCool.5 mph62%29.92 "HgN/A
9:20 am41 °FQuite cool.2 mph70%29.92 "HgN/A
8:20 am36 °FChilly.2 mph81%29.95 "HgN/A
7:20 am28 °FChilly.2 mph93%29.95 "HgN/A
6:20 am28 °FChilly.3 mph93%29.95 "HgN/A
5:20 am28 °FChilly.3 mph93%29.95 "HgN/A
4:20 am28 °FChilly.3 mph93%29.95 "HgN/A
3:20 am28 °FChilly.3 mph93%29.95 "HgN/A
2:20 am30 °FChilly.1 mph86%29.95 "HgN/A
1:20 am32 °FChilly.1 mph87%29.98 "HgN/A
12:20 am36 °FChilly.3 mph75%29.98 "HgN/A
11:20 pm
Sat, Apr 29
36 °FChilly.1 mph75%30.01 "HgN/A
10:20 pm37 °FChilly.2 mph65%30.01 "HgN/A
9:20 pm41 °FQuite cool.2 mph57%30.01 "HgN/A
8:20 pm43 °FQuite cool.5 mph53%30.01 "HgN/A
7:20 pm46 °FCool.8 mph50%30.01 "HgN/A
6:20 pm50 °FCool.3 mph37%30.01 "HgN/A
Weather by CustomWeather, © 2017

See weather overviewHow to use our weather pages